Flag for Germany Weather past 2 weeks in Offenburg, Baden-Württemberg, Germany

34 °F

Low clouds.

Feels Like: 28 °F
Forecast: 28 / 43 °F
Wind: 7 mph from South

Location: Strasbourg Airport

Current Time: Nov 28, 2015 at 12:51:45 AM

Latest Report: Nov 28, 2015 at 12:00 AM

Visibility: 5 mi

Pressure: 29.98 "Hg

Humidity: 87%

Dew point: 30 °F

Location of OffenburgLocation

Historic Weather in Offenburg — Graph


Offenburg temperature yesterday

Maximum temperature yesterday: 36 °F (at 3:00 PM)
Minimum temperature yesterday: 30 °F (at 2:00 AM)
Average temperature yesterday: 34 °F

Past Weeks' High & Low Weather Summary

High64 °F (Nov 15, 3:00 PM)100% (Nov 12, 11:30 PM)30.48 "Hg (Nov 12, 11:30 PM)
Low25 °F (Nov 24, 7:30 AM)39% (Nov 16, 11:30 AM)29.45 "Hg (Nov 21, 11:00 AM)
Average46 °F78%30.04 "Hg
* Reported Nov 12 11:00 PM — Nov 27 11:30 PM, Offenburg, Weather by CustomWeather, © 2015

Note: Actual official high and low records may vary slightly from our data, if they occured in-between our weather recording intervals... More about our weather records


Offenburg weather history for previous 24 hours

Time TempWeatherWind HumidityBarometerVisibility
11:30 PM
Fri, Nov 27
34 °FLow clouds.7 mph87%29.98 "Hg6 mi
11:00 PM34 °FLow clouds.7 mph87%29.98 "Hg5 mi
10:30 PM34 °FLow clouds.8 mph87%30.01 "Hg6 mi
10:00 PM34 °FLow clouds.7 mph87%30.01 "Hg5 mi
9:30 PM34 °FLow clouds.7 mph93%30.01 "Hg5 mi
9:00 PM34 °FLow clouds.7 mph93%30.01 "Hg4 mi
8:30 PM34 °FLow clouds.8 mph93%30.04 "Hg4 mi
8:00 PM36 °FLow clouds.5 mph87%30.04 "Hg4 mi
7:30 PM36 °FLow clouds.7 mph87%30.04 "Hg4 mi
7:00 PM36 °FLow clouds.6 mph87%30.04 "Hg6 mi
6:30 PM36 °FLow clouds.3 mph87%30.04 "Hg5 mi
6:00 PM36 °FLow clouds.5 mph87%30.04 "Hg4 mi
5:30 PM36 °FLow clouds.3 mph87%30.04 "Hg5 mi
5:00 PM36 °FLow clouds.3 mph87%30.04 "Hg5 mi
4:30 PM36 °FLow clouds.2 mph87%30.04 "Hg5 mi
4:00 PM36 °FLow clouds.3 mph87%30.04 "Hg5 mi
3:30 PM36 °FLow clouds.1 mph87%30.04 "Hg6 mi
3:00 PM36 °FLow clouds.2 mph87%30.07 "Hg6 mi
2:30 PM34 °FLow clouds.2 mph93%30.07 "Hg5 mi
2:00 PM34 °FLow clouds.2 mph93%30.07 "Hg4 mi
1:30 PM34 °FLow clouds.3 mph100%30.07 "Hg4 mi
1:00 PM34 °FLow clouds.5 mph93%30.09 "Hg4 mi
12:30 PM34 °FLow clouds.5 mph100%30.09 "Hg4 mi
12:00 PM34 °FFog.5 mph100%30.12 "Hg3 mi
11:30 AM34 °FFog.6 mph93%30.12 "Hg3 mi
11:00 AM34 °FFog.6 mph93%30.12 "Hg2 mi
10:30 AM34 °FFog.6 mph93%30.12 "Hg1 mi
10:00 AM34 °FFog.5 mph93%30.12 "Hg1 mi
9:30 AM34 °FFog.5 mph93%30.12 "Hg1 mi
9:00 AM34 °FFog.5 mph93%30.15 "Hg1 mi
8:00 AM34 °FFog.3 mph93%30.15 "Hg1 mi
7:30 AM34 °FFog.3 mph100%30.12 "Hg1 mi
7:00 AM34 °FFog.5 mph100%30.15 "Hg1 mi
6:30 AM34 °FFog.6 mph100%30.15 "Hg1 mi
6:00 AM34 °FFog.6 mph100%30.15 "Hg1 mi
5:30 AM34 °FFog.6 mph100%30.15 "Hg1 mi
5:00 AM34 °FFog.6 mph100%30.15 "Hg1 mi
4:30 AM34 °FFog.5 mph100%30.15 "Hg1 mi
4:00 AM34 °FFog.5 mph93%30.15 "Hg3 mi
3:30 AM34 °FLow clouds.3 mph93%30.15 "Hg4 mi
3:00 AM32 °FIce fog.5 mph100%30.15 "Hg3 mi
2:30 AM32 °FPassing clouds.5 mph93%30.15 "Hg4 mi
2:00 AM30 °FClear.2 mph93%30.15 "Hg4 mi
1:30 AM32 °FClear.3 mph100%30.15 "Hg5 mi
1:00 AM32 °FClear.6 mph100%30.15 "Hg4 mi
12:30 AM34 °FClear.6 mph93%30.15 "Hg4 mi
Weather by CustomWeather, © 2015

See weather overviewHow to use our weather pages